| time (UTC) | temp F | wind direction | speed MPH | gust MPH | rain 1hr in | rain 24hr in | rain mn in | humidity % | barometer mb |
| 20260510221533 | 67 | 282 | 12.0 | 23.0 | 0.00 | 0.00 | 0.00 | 53 | 1020.2 |
| 20260510220034 | 67 | 279 | 12.0 | 25.0 | 0.00 | 0.00 | 0.00 | 54 | 1020.0 |
| 20260510211610 | 66 | 284 | 10.0 | 22.0 | 0.00 | 0.00 | 0.00 | 57 | 1020.4 |
| 20260510210034 | 64 | 264 | 13.0 | 24.0 | 0.00 | 0.00 | 0.00 | 60 | 1020.5 |
| 20260510204536 | 62 | 267 | 13.0 | 26.0 | 0.00 | 0.00 | 0.00 | 64 | 1020.5 |
| 20260510203032 | 62 | 271 | 12.0 | 25.0 | 0.00 | 0.00 | 0.00 | 65 | 1020.3 |
| 20260510201534 | 63 | 278 | 10.0 | 25.0 | 0.00 | 0.00 | 0.00 | 63 | 1019.8 |
| 20260510200035 | 65 | 284 | 11.0 | 24.0 | 0.00 | 0.00 | 0.00 | 62 | 1019.9 |
| 20260510194534 | 64 | 272 | 12.0 | 22.0 | 0.00 | 0.00 | 0.00 | 63 | 1019.7 |
| 20260510193033 | 64 | 280 | 12.0 | 24.0 | 0.00 | 0.00 | 0.00 | 65 | 1019.4 |
| 20260510191532 | 64 | 278 | 13.0 | 24.0 | 0.00 | 0.00 | 0.00 | 66 | 1019.2 |
| 20260510184532 | 64 | 283 | 11.0 | 25.0 | 0.00 | 0.00 | 0.00 | 67 | 1018.9 |
| 20260510181533 | 65 | 267 | 5.0 | 17.0 | 0.00 | 0.00 | 0.00 | 66 | 1019.0 |
| 20260510180037 | 62 | 248 | 6.0 | 14.0 | 0.00 | 0.00 | 0.00 | 69 | 1019.0 |
| 20260510174536 | 62 | 250 | 8.0 | 16.0 | 0.00 | 0.00 | 0.00 | 70 | 1019.1 |
| 20260510173034 | 63 | 256 | 5.0 | 11.0 | 0.00 | 0.00 | 0.00 | 67 | 1019.1 |
| 20260510164643 | 59 | 263 | 6.0 | 13.0 | 0.00 | 0.00 | 0.00 | 74 | 1019.1 |
| 20260510154538 | 56 | 162 | 2.0 | 4.0 | 0.00 | 0.00 | 0.00 | 76 | 1019.0 |
| 20260510153036 | 54 | 176 | 1.0 | 5.0 | 0.00 | 0.00 | 0.00 | 77 | 1019.0 |
| 20260510151532 | 54 | 164 | 2.0 | 4.0 | 0.00 | 0.00 | 0.00 | 78 | 1018.9 |
| 20260510150110 | 53 | 90 | 2.0 | 7.0 | 0.00 | 0.00 | 0.00 | 80 | 1019.1 |
| 20260510144532 | 52 | 90 | 1.0 | 7.0 | 0.00 | 0.00 | 0.00 | 81 | 1018.9 |
| 20260510141532 | 49 | 157 | 0.0 | 4.0 | 0.00 | 0.00 | 0.00 | 87 | 1018.7 |
| 20260510140028 | 48 | 164 | 1.0 | 5.0 | 0.00 | 0.00 | 0.00 | 89 | 1018.6 |
| 20260510134532 | 46 | 179 | 1.0 | 4.0 | 0.00 | 0.00 | 0.00 | 92 | 1018.8 |
| 20260510131535 | 44 | 135 | 0.0 | 0.0 | 0.00 | 0.00 | 0.00 | 94 | 1018.7 |
| 20260510130037 | 43 | 135 | 0.0 | 4.0 | 0.00 | 0.00 | 0.00 | 94 | 1018.7 |
| 20260510124535 | 43 | 165 | 0.0 | 2.0 | 0.00 | 0.00 | 0.00 | 93 | 1018.8 |
| 20260510121535 | 43 | 180 | 0.0 | 0.0 | 0.00 | 0.00 | 0.00 | 94 | 1018.8 |
| 20260510120035 | 43 | 168 | 0.0 | 4.0 | 0.00 | 0.00 | 0.00 | 93 | 1018.7 |
| 20260510114535 | 42 | 155 | 0.0 | 4.0 | 0.00 | 0.00 | 0.00 | 92 | 1018.7 |
| 20260510113034 | 42 | 202 | 0.0 | 2.0 | 0.00 | 0.00 | 0.00 | 91 | 1018.6 |
| 20260510110035 | 43 | 202 | 0.0 | 1.0 | 0.00 | 0.00 | 0.00 | 91 | 1018.3 |
| 20260510104533 | 43 | 260 | 0.0 | 3.0 | 0.00 | 0.00 | 0.00 | 91 | 1018.5 |
| 20260510103030 | 43 | 270 | 0.0 | 0.0 | 0.00 | 0.00 | 0.00 | 90 | 1018.6 |
| 20260510101642 | 44 | 270 | 0.0 | 0.0 | 0.00 | 0.00 | 0.00 | 90 | 1018.4 |
| 20260510100034 | 44 | 270 | 0.0 | 0.0 | 0.00 | 0.00 | 0.00 | 90 | 1018.3 |
| 20260510094532 | 45 | 194 | 0.0 | 2.0 | 0.00 | 0.00 | 0.00 | 89 | 1018.2 |
| 20260510093030 | 45 | 181 | 0.0 | 4.0 | 0.00 | 0.00 | 0.00 | 88 | 1018.3 |
| 20260510091530 | 45 | 180 | 0.0 | 0.0 | 0.00 | 0.00 | 0.00 | 88 | 1018.3 |
| 20260510090034 | 46 | 180 | 0.0 | 0.0 | 0.00 | 0.00 | 0.00 | 88 | 1018.4 |
| 20260510084534 | 46 | 180 | 0.0 | 0.0 | 0.00 | 0.00 | 0.00 | 87 | 1018.5 |
| 20260510083032 | 47 | 180 | 0.0 | 0.0 | 0.00 | 0.00 | 0.00 | 87 | 1018.6 |
| 20260510081535 | 47 | 180 | 0.0 | 0.0 | 0.00 | 0.00 | 0.00 | 86 | 1018.6 |
| 20260510080034 | 48 | 180 | 0.0 | 2.0 | 0.00 | 0.00 | 0.00 | 86 | 1018.6 |
| 20260510074535 | 48 | 180 | 1.0 | 2.0 | 0.00 | 0.00 | 0.00 | 86 | 1018.7 |
| 20260510073035 | 49 | 180 | 0.0 | 2.0 | 0.00 | 0.00 | 0.00 | 85 | 1018.7 |
| 20260510070030 | 49 | 225 | 0.0 | 0.0 | 0.00 | 0.00 | 0.00 | 83 | 1018.6 |
| 20260510064607 | 50 | 225 | 0.0 | 0.0 | 0.00 | 0.00 | 0.00 | 82 | 1018.6 |
| 20260510063152 | 51 | 225 | 0.0 | 0.0 | 0.00 | 0.00 | 0.00 | 81 | 1018.5 |
| 20260510061534 | 52 | 225 | 0.0 | 0.0 | 0.00 | 0.00 | 0.00 | 80 | 1018.4 |
| 20260510060036 | 53 | 225 | 0.0 | 0.0 | 0.00 | 0.00 | 0.00 | 80 | 1018.3 |
| 20260510054608 | 54 | 222 | 0.0 | 3.0 | 0.00 | 0.00 | 0.00 | 79 | 1018.2 |
| 20260510050107 | 57 | 181 | 1.0 | 3.0 | 0.00 | 0.00 | 0.00 | 78 | 1017.9 |
| 20260510044535 | 57 | 171 | 0.0 | 4.0 | 0.00 | 0.00 | 0.00 | 77 | 1017.8 |
| 20260510043037 | 58 | 159 | 0.0 | 3.0 | 0.00 | 0.00 | 0.00 | 75 | 1017.7 |
| 20260510041536 | 60 | 159 | 0.0 | 3.0 | 0.00 | 0.00 | 0.00 | 72 | 1017.4 |
| 20260510031535 | 70 | 262 | 0.0 | 2.0 | 0.00 | 0.00 | 0.00 | 58 | 1016.8 |
| 20260510024538 | 71 | 292 | 0.0 | 0.0 | 0.00 | 0.00 | 0.00 | 56 | 1016.8 |
| 20260510021535 | 74 | 292 | 0.0 | 0.0 | 0.00 | 0.00 | 0.00 | 53 | 1016.7 |
| 20260510014536 | 77 | 292 | 0.0 | 1.0 | 0.00 | 0.00 | 0.00 | 40 | 1017.0 |
| 20260510013036 | 76 | 292 | 0.0 | 2.0 | 0.00 | 0.00 | 0.00 | 43 | 1017.1 |
| 20260510011536 | 77 | 292 | 0.0 | 1.0 | 0.00 | 0.00 | 0.00 | 38 | 1017.2 |
| 20260510010030 | 79 | 292 | 2.0 | 4.0 | 0.00 | 0.00 | 0.00 | 33 | 1017.3 |
| 20260510004535 | 81 | 307 | 2.0 | 5.0 | 0.00 | 0.00 | 0.00 | 32 | 1017.4 |
| 20260510001535 | 83 | 328 | 1.0 | 4.0 | 0.00 | 0.00 | 0.00 | 28 | 1017.4 |
| 20260510000036 | 85 | 329 | 0.0 | 2.0 | 0.00 | 0.00 | 0.00 | 27 | 1017.6 |
| 20260509234535 | 84 | 22 | 1.0 | 4.0 | 0.00 | 0.00 | 0.00 | 27 | 1017.8 |
| 20260509233036 | 83 | 6 | 1.0 | 4.0 | 0.00 | 0.00 | 0.00 | 27 | 1018.0 |
| 20260509231535 | 83 | 1 | 3.0 | 7.0 | 0.00 | 0.00 | 0.00 | 28 | 1018.3 |
| 20260509230035 | 84 | 30 | 2.0 | 6.0 | 0.00 | 0.00 | 0.00 | 28 | 1018.8 |
| 20260509223110 | 83 | 109 | 2.0 | 6.0 | 0.00 | 0.00 | 0.00 | 30 | 1019.4 |